DW5818 Lorient FR current weather conditions

sailwx.info

Wind from 169 at 6 knots gusting 15

Air temperature 21.1° C
Dewpoint 13.5° C

Last reported at 2019-Aug-20 13:10 UTC.
Time now 2019-Aug-20 13:45 UTC

Location: N 47°42' W 003°15'.
View on Google Maps.

See reports from other nearby stations

  
Tides and Currents Weather Stations Pressure Air Temp Water Temp Dewpoint Dewpoint Depression Visibility Wind Speed Wind Dir Waves Ship Positions
date/time (UTC)wind fromknots sea level pressurealtimeterstation pressurevisibilityair tempwater tempwave heightnotes
2019-Aug-20 13:10 169 6 gusting 15 21.1
2019-Aug-20 13:05 301 1 gusting 13 20.6
2019-Aug-20 12:59 173 6 gusting 13 20.6
2019-Aug-20 12:54 360 4 gusting 12 21.1
2019-Aug-20 12:48 207 6 gusting 12 21.7
2019-Aug-20 12:45 273 0 gusting 13 21.7
2019-Aug-20 12:39 256 6 gusting 13 21.1
2019-Aug-20 12:34 216 6 gusting 12 20.6
2019-Aug-20 12:29 186 1 gusting 15 20.6
2019-Aug-20 12:24 245 5 gusting 15 21.1
2019-Aug-20 12:20 194 6 gusting 15 21.1
2019-Aug-20 12:14 146 6 gusting 15 21.7
2019-Aug-20 12:09 360 3 gusting 13 21.7
2019-Aug-20 12:04 005 0 gusting 6 21.7
2019-Aug-20 12:00 005 2 gusting 5 21.7
2019-Aug-20 11:54 005 21.1
2019-Aug-20 11:49 005 21.7
2019-Aug-20 11:45 005 6 gusting 9 21.7
2019-Aug-20 11:40 030 0 gusting 3 21.1
2019-Aug-20 11:34 030 21.1
2019-Aug-20 11:29 030 21.1
2019-Aug-20 11:25 030 1 gusting 8 21.7
2019-Aug-20 11:19 030 2 gusting 8 21.7
2019-Aug-20 11:14 071 3 gusting 7 21.7
2019-Aug-20 11:10 074 1 gusting 7 21.1
2019-Aug-20 11:04 076 1 gusting 6 21.1
2019-Aug-20 10:59 076 20.6
2019-Aug-20 10:54 076 1 gusting 7 21.1
2019-Aug-20 10:50 076 0 gusting 7 21.1
2019-Aug-20 10:44 076 21.1
2019-Aug-20 10:39 076 21.1
2019-Aug-20 10:34 051 21.1
2019-Aug-20 10:30 055 2 gusting 9 21.1
2019-Aug-20 10:24 078 4 gusting 7 21.1
2019-Aug-20 10:19 028 21.1
2019-Aug-20 10:14 025 1 gusting 7 21.1
2019-Aug-20 10:09 046 2 gusting 7 20.6
2019-Aug-20 10:04 085 2 gusting 7 20.6
2019-Aug-20 10:00 064 1 gusting 7 20.6
2019-Aug-20 09:54 037 2 gusting 6 20.6
2019-Aug-20 09:49 037 2 gusting 8 20.0
2019-Aug-20 09:44 009 3 gusting 9 20.0
2019-Aug-20 09:39 074 0 gusting 9 20.0
2019-Aug-20 09:34 086 3 gusting 8 20.0
2019-Aug-20 09:29 030 3 gusting 8 19.4
2019-Aug-20 09:24 049 4 gusting 7 19.4
2019-Aug-20 09:20 028 2 gusting 7 19.4
2019-Aug-20 09:14 046 2 gusting 5 18.9
2019-Aug-20 09:09 051 1 gusting 7 18.9
2019-Aug-20 09:04 092 2 gusting 7 18.9
2019-Aug-20 09:00 334 3 gusting 7 18.3
2019-Aug-20 08:54 311 2 gusting 6 18.3
2019-Aug-20 08:49 308 17.8
2019-Aug-20 08:44 308 17.2
2019-Aug-20 08:39 308 2 gusting 6 16.7
2019-Aug-20 08:35 304 0 gusting 5 16.1
2019-Aug-20 08:29 304 1 gusting 5 16.1
2019-Aug-20 08:24 295 0 gusting 5 15.6
2019-Aug-20 08:20 295 1 gusting 5 15.6
2019-Aug-20 08:14 295 15.0
2019-Aug-20 08:09 294 1 gusting 6 15.0
2019-Aug-20 08:04 294 0 gusting 4 14.4
2019-Aug-20 07:59 294 0 gusting 5 14.4
2019-Aug-20 07:54 294 1 gusting 5 14.4
2019-Aug-20 07:48 275 0 gusting 4 13.9
2019-Aug-20 07:44 275 13.9
2019-Aug-20 07:39 275 13.3
2019-Aug-20 07:34 275 13.3
2019-Aug-20 07:29 275 12.8
2019-Aug-20 07:24 275 12.2
2019-Aug-20 07:19 275 12.2
2019-Aug-20 07:14 275 11.7
2019-Aug-20 07:09 275 11.7
2019-Aug-20 07:04 275 11.1
2019-Aug-20 06:59 275 11.1
2019-Aug-20 06:55 275 10.6
2019-Aug-20 06:49 275 10.6
2019-Aug-20 06:44 275 10.0
2019-Aug-20 06:39 275 9.4
2019-Aug-20 06:34 275 9.4
2019-Aug-20 06:29 275 9.4
2019-Aug-20 06:24 275 8.9
2019-Aug-20 06:19 275 8.9
2019-Aug-20 06:15 275 8.3
2019-Aug-20 06:09 275 8.3
2019-Aug-20 06:04 275 8.3
2019-Aug-20 05:59 275 7.8
2019-Aug-20 05:55 275 7.8
2019-Aug-20 05:49 275 7.8
2019-Aug-20 05:44 275 7.8
2019-Aug-20 05:39 275 7.8
2019-Aug-20 05:34 275 7.8
2019-Aug-20 05:30 275 7.8
2019-Aug-20 05:24 275 7.8
2019-Aug-20 05:19 275 7.8
2019-Aug-20 05:14 275 7.8
2019-Aug-20 05:09 275 8.3
2019-Aug-20 05:05 275 8.3
2019-Aug-20 04:59 275 8.3
2019-Aug-20 04:54 275 8.3
2019-Aug-20 04:49 275 8.3
2019-Aug-20 04:45 275 8.3
2019-Aug-20 04:39 275 8.3
2019-Aug-20 04:34 275 8.3
2019-Aug-20 04:29 275 8.3
2019-Aug-20 04:24 275 8.3
2019-Aug-20 04:19 275 8.3
2019-Aug-20 04:14 275 8.3
2019-Aug-20 04:10 275 8.3
2019-Aug-20 04:04 275 8.9
2019-Aug-20 03:59 275 8.9
2019-Aug-20 03:54 275 8.9
2019-Aug-20 03:49 275 8.9
2019-Aug-20 03:45 275 8.9
2019-Aug-20 03:39 275 8.9
2019-Aug-20 03:34 275 8.9
2019-Aug-20 03:29 275 8.9
2019-Aug-20 03:24 275 8.9
2019-Aug-20 03:20 275 8.9
2019-Aug-20 03:15 275 8.9
2019-Aug-20 03:09 275 9.4
2019-Aug-20 03:04 275 9.4
2019-Aug-20 02:59 275 9.4
2019-Aug-20 02:54 275 9.4
2019-Aug-20 02:50 275 9.4
2019-Aug-20 02:45 275 9.4
2019-Aug-20 02:39 275 9.4
2019-Aug-20 02:34 275 9.4
2019-Aug-20 02:29 275 9.4
2019-Aug-20 02:24 275 9.4
2019-Aug-20 02:19 275 9.4
2019-Aug-20 02:14 275 9.4
2019-Aug-20 02:09 275 10.0
2019-Aug-20 02:04 275 10.0
2019-Aug-20 01:59 275 10.0
2019-Aug-20 01:54 275 10.0
2019-Aug-20 01:49 275 10.0
2019-Aug-20 01:44 275 10.0
2019-Aug-20 01:39 275 10.0
2019-Aug-20 01:34 275 10.0
2019-Aug-20 01:29 275 10.0
2019-Aug-20 01:24 275 10.6
2019-Aug-20 01:19 275 10.6
2019-Aug-20 01:14 275 10.6
2019-Aug-20 01:09 275 10.6
2019-Aug-20 01:04 275 10.6
2019-Aug-20 00:59 275 10.6
2019-Aug-20 00:54 275 10.6
2019-Aug-20 00:49 275 10.6
2019-Aug-20 00:44 275 10.6
2019-Aug-20 00:40 275 11.1
2019-Aug-20 00:34 275 11.1
2019-Aug-20 00:29 275 11.1
2019-Aug-20 00:25 275 11.1
2019-Aug-20 00:19 275 11.1
2019-Aug-20 00:14 275 11.1
2019-Aug-20 00:10 275 11.1
2019-Aug-20 00:04 275 11.1
2019-Aug-19 23:59 275 11.7
2019-Aug-19 23:55 275 11.7
2019-Aug-19 23:49 275 11.7
2019-Aug-19 23:44 275 11.7
2019-Aug-19 23:39 275 12.2
2019-Aug-19 23:34 275 12.2
2019-Aug-19 23:29 275 12.2
2019-Aug-19 23:24 275 12.2
2019-Aug-19 23:20 275 12.2
2019-Aug-19 23:14 275 12.2
2019-Aug-19 23:09 275 12.2
2019-Aug-19 23:05 275 12.2
2019-Aug-19 22:59 275 12.8
2019-Aug-19 22:54 275 12.8
2019-Aug-19 22:50 275 12.8
2019-Aug-19 22:45 275 12.8
2019-Aug-19 22:39 275 12.8
2019-Aug-19 22:34 275 12.8
2019-Aug-19 22:30 275 12.8
2019-Aug-19 22:24 275 13.3
2019-Aug-19 22:19 275 13.3
2019-Aug-19 22:15 275 13.3
2019-Aug-19 22:09 275 13.3
2019-Aug-19 22:04 275 13.3
2019-Aug-19 21:59 275 13.3
2019-Aug-19 21:55 275 13.9
2019-Aug-19 21:50 275 13.9
2019-Aug-19 21:44 275 13.9
2019-Aug-19 21:40 275 13.9
2019-Aug-19 21:34 275 13.9
2019-Aug-19 21:29 275 13.9
2019-Aug-19 21:25 275 14.4
2019-Aug-19 21:20 275 14.4
2019-Aug-19 21:14 275 14.4
2019-Aug-19 21:09 275 14.4
2019-Aug-19 21:05 275 14.4
2019-Aug-19 20:59 275 15.0
2019-Aug-19 20:54 275 15.0
2019-Aug-19 20:50 275 15.0
2019-Aug-19 20:45 275 15.0
2019-Aug-19 20:39 275 15.0
2019-Aug-19 20:35 275 15.6
2019-Aug-19 20:30 275 15.6
2019-Aug-19 20:24 275 15.6
2019-Aug-19 20:20 275 15.6
2019-Aug-19 20:15 275 16.1
2019-Aug-19 20:09 275 16.1
2019-Aug-19 20:04 275 16.1
2019-Aug-19 20:00 275 16.1
2019-Aug-19 19:55 275 16.7
2019-Aug-19 19:49 275 16.7
2019-Aug-19 19:45 275 16.7
2019-Aug-19 19:40 275 16.7
2019-Aug-19 19:35 275 16.7
2019-Aug-19 19:29 275 17.2
2019-Aug-19 19:25 275 17.2
2019-Aug-19 19:20 275 17.2
2019-Aug-19 19:14 275 0 gusting 4 17.2
2019-Aug-19 19:10 275 17.2
2019-Aug-19 19:04 281 0 gusting 5 17.8
2019-Aug-19 19:00 283 17.8
2019-Aug-19 18:55 282 1 gusting 6 17.8
2019-Aug-19 18:50 288 0 gusting 6 17.8
2019-Aug-19 18:44 289 17.8
2019-Aug-19 18:40 286 0 gusting 5 17.8
2019-Aug-19 18:35 296 0 gusting 6 18.3
2019-Aug-19 18:29 229 0 gusting 9 18.3
2019-Aug-19 18:24 298 1 gusting 9 18.3
2019-Aug-19 18:20 298 1 gusting 11 18.3
2019-Aug-19 18:15 271 4 gusting 11 18.3
2019-Aug-19 18:09 238 3 gusting 11 18.9
2019-Aug-19 18:04 208 2 gusting 15 18.9
2019-Aug-19 18:00 192 3 gusting 15 18.9
2019-Aug-19 17:55 249 2 gusting 13 19.4
2019-Aug-19 17:49 278 2 gusting 13 19.4
2019-Aug-19 17:44 183 3 gusting 13 19.4
2019-Aug-19 17:40 222 4 gusting 13 19.4
2019-Aug-19 17:35 296 5 gusting 12 19.4
2019-Aug-19 17:29 261 5 gusting 12 19.4
2019-Aug-19 17:24 355 5 gusting 13 20.0
2019-Aug-19 17:20 282 4 gusting 15 20.0
2019-Aug-19 17:15 011 3 gusting 16 20.0
2019-Aug-19 17:09 284 7 gusting 23 20.0
2019-Aug-19 17:04 269 6 gusting 23 20.0
2019-Aug-19 17:00 280 6 gusting 17 20.0
2019-Aug-19 16:55 289 6 gusting 22 20.0
2019-Aug-19 16:49 274 4 gusting 22 20.0
2019-Aug-19 16:44 217 7 gusting 16 20.0
2019-Aug-19 16:40 221 6 gusting 18 20.0
2019-Aug-19 16:35 277 7 gusting 19 20.0
2019-Aug-19 16:30 360 6 gusting 22 20.0
2019-Aug-19 16:24 209 11 gusting 22 20.0
2019-Aug-19 16:20 186 6 gusting 19 20.0
2019-Aug-19 16:15 360 7 gusting 18 20.6
2019-Aug-19 16:10 360 7 gusting 22 20.6
2019-Aug-19 16:04 192 6 gusting 22 20.6
2019-Aug-19 16:00 236 7 gusting 17 20.6
2019-Aug-19 15:55 255 9 gusting 19 20.6
2019-Aug-19 15:50 360 7 gusting 19 20.6
2019-Aug-19 15:44 311 7 gusting 18 20.6
2019-Aug-19 15:40 168 9 gusting 18 21.1
2019-Aug-19 15:35 270 6 gusting 17 21.1
2019-Aug-19 15:29 258 7 gusting 19 20.6
2019-Aug-19 15:24 274 8 gusting 19 20.6
2019-Aug-19 15:20 238 4 gusting 20 20.6
2019-Aug-19 15:15 202 8 gusting 18 20.6
2019-Aug-19 15:09 198 7 gusting 19 21.1
2019-Aug-19 15:04 212 5 gusting 19 20.6
2019-Aug-19 15:00 248 7 gusting 22 20.6
2019-Aug-19 14:55 205 11 gusting 22 21.1
2019-Aug-19 14:49 238 7 gusting 18 21.1
2019-Aug-19 14:44 194 7 gusting 15 21.1
2019-Aug-19 14:40 301 6 gusting 19 21.1
2019-Aug-19 14:35 227 8 gusting 19 21.1
2019-Aug-19 14:29 290 6 gusting 13 21.7
2019-Aug-19 14:25 226 3 gusting 17 21.7
2019-Aug-19 14:20 267 7 gusting 17 21.7
2019-Aug-19 14:15 159 2 gusting 13 21.7
2019-Aug-19 14:09 329 7 gusting 15 21.7
2019-Aug-19 14:05 318 6 gusting 17 21.7
2019-Aug-19 14:00 252 8 gusting 21 21.7
2019-Aug-19 13:54 279 8 gusting 21 21.7
2019-Aug-19 13:50 209 7 gusting 16 21.7
2019-Aug-19 13:45 334 2 gusting 15 21.7
2019-Aug-19 13:39 252 6 gusting 19 21.1
2019-Aug-19 13:34 223 6 gusting 20 21.1
2019-Aug-19 13:30 312 6 gusting 20 21.1
2019-Aug-19 13:25 360 6 gusting 24 21.1
2019-Aug-19 13:19 234 6 gusting 24 21.1
2019-Aug-19 13:15 267 5 gusting 17 21.1
2019-Aug-19 13:10 197 8 gusting 15 21.7
2019-Aug-19 13:05 164 5 gusting 16 21.1
2019-Aug-19 12:59 217 6 gusting 16 21.1
2019-Aug-19 12:55 223 7 gusting 19 21.7
2019-Aug-19 12:50 251 4 gusting 12 21.7
2019-Aug-19 12:44 298 3 gusting 12 21.7
2019-Aug-19 12:40 245 3 gusting 13 21.7
2019-Aug-19 12:35 247 6 gusting 19 21.7
2019-Aug-19 12:29 216 8 gusting 19 21.7
2019-Aug-19 12:24 346 4 gusting 15 21.1
2019-Aug-19 12:20 234 5 gusting 19 21.1
2019-Aug-19 12:14 240 7 gusting 19 21.1
2019-Aug-19 12:09 242 4 gusting 18 21.1
2019-Aug-19 12:04 263 9 gusting 18 21.1
2019-Aug-19 12:00 211 5 gusting 19 21.1
2019-Aug-19 11:54 209 9 gusting 19 21.1
2019-Aug-19 11:49 260 6 gusting 17 21.1
2019-Aug-19 11:45 289 7 gusting 24 21.1
2019-Aug-19 11:39 194 9 gusting 24 20.6
2019-Aug-19 11:34 304 9 gusting 20 20.6
2019-Aug-19 11:30 231 5 gusting 19 20.6
2019-Aug-19 11:25 237 9 gusting 19 20.6
2019-Aug-19 11:19 202 6 gusting 23 20.6
2019-Aug-19 11:14 206 8 gusting 23 20.0
2019-Aug-19 11:10 140 6 gusting 19 20.0
2019-Aug-19 11:05 284 7 gusting 19 20.0
2019-Aug-19 10:59 173 5 gusting 19 20.0
2019-Aug-19 10:54 195 6 gusting 19 20.0
2019-Aug-19 10:50 277 9 gusting 19 20.0
2019-Aug-19 10:45 246 7 gusting 23 20.0
2019-Aug-19 10:40 178 11 gusting 23 20.0
2019-Aug-19 10:34 211 5 gusting 17 20.0
2019-Aug-19 10:29 178 8 gusting 18 20.0
2019-Aug-19 10:25 170 6 gusting 18 20.0
2019-Aug-19 10:20 282 6 gusting 17 20.0
2019-Aug-19 10:15 306 6 gusting 16 20.0
2019-Aug-19 10:09 211 7 gusting 13 20.0
2019-Aug-19 10:05 194 6 gusting 15 20.0
2019-Aug-19 09:59 242 6 gusting 19 20.0
2019-Aug-19 09:54 227 7 gusting 19 20.6
2019-Aug-19 09:50 360 5 gusting 25 20.6
2019-Aug-19 09:45 304 7 gusting 25 20.0
2019-Aug-19 09:39 197 6 gusting 17 20.0
2019-Aug-19 09:34 293 7 gusting 16 20.0
2019-Aug-19 09:30 248 7 gusting 13 20.0
2019-Aug-19 09:24 193 4 gusting 18 20.0
2019-Aug-19 09:20 232 5 gusting 18 19.4
2019-Aug-19 09:15 275 3 gusting 13 19.4
2019-Aug-19 09:09 284 4 gusting 17 18.9
2019-Aug-19 09:05 277 7 gusting 17 18.9
2019-Aug-19 09:00 269 6 gusting 16 19.4
2019-Aug-19 08:54 005 2 gusting 16 18.9
2019-Aug-19 08:49 360 5 gusting 11 18.9
2019-Aug-19 08:45 360 18.9
2019-Aug-19 08:40 244 4 gusting 10 18.3
2019-Aug-19 08:34 184 2 gusting 11 18.9
2019-Aug-19 08:30 197 2 gusting 11 18.9
2019-Aug-19 08:25 246 6 gusting 11 18.3
2019-Aug-19 08:19 234 5 gusting 11 18.3
2019-Aug-19 08:15 307 3 gusting 18 17.8
2019-Aug-19 08:10 285 6 gusting 18 17.2
2019-Aug-19 08:04 283 5 gusting 11 17.2
2019-Aug-19 08:00 211 1 gusting 12 16.7
2019-Aug-19 07:54 310 3 gusting 12 16.7
2019-Aug-19 07:49 279 16.1
2019-Aug-19 07:45 244 5 gusting 10 16.1
2019-Aug-19 07:40 240 1 gusting 7 16.1
2019-Aug-19 07:34 240 0 gusting 6 15.6
2019-Aug-19 07:30 276 1 gusting 6 15.6
2019-Aug-19 07:25 276 0 gusting 5 15.6
2019-Aug-19 07:19 276 15.6
2019-Aug-19 07:14 276 15.6
2019-Aug-19 07:10 276 15.0
2019-Aug-19 07:04 276 14.4
2019-Aug-19 07:00 276 14.4
2019-Aug-19 06:55 276 13.9
2019-Aug-19 06:50 276 13.9
2019-Aug-19 06:44 276 13.3
2019-Aug-19 06:39 276 12.8
2019-Aug-19 06:35 276 12.8
2019-Aug-19 06:29 276 12.2
2019-Aug-19 06:24 276 12.2
2019-Aug-19 06:20 276 11.7
2019-Aug-19 06:15 276 11.7
2019-Aug-19 06:09 276 11.7
2019-Aug-19 06:05 276 11.7
2019-Aug-19 05:59 276 11.1
2019-Aug-19 05:54 276 11.1
2019-Aug-19 05:50 276 11.1
2019-Aug-19 05:45 276 11.1
2019-Aug-19 05:39 276 11.1
2019-Aug-19 05:34 276 11.1
2019-Aug-19 05:30 276 11.1
2019-Aug-19 05:23 276 11.1
2019-Aug-19 05:19 276 11.1
2019-Aug-19 05:15 276 11.1
2019-Aug-19 05:10 276 11.1
2019-Aug-19 05:04 276 11.7
2019-Aug-19 05:00 276 11.7
2019-Aug-19 04:55 276 11.7
2019-Aug-19 04:50 276 11.7
2019-Aug-19 04:44 276 11.7
2019-Aug-19 04:39 276 11.7
2019-Aug-19 04:35 276 11.7
2019-Aug-19 04:29 276 11.7
2019-Aug-19 04:24 276 11.7
2019-Aug-19 04:20 276 12.2
2019-Aug-19 04:15 276 12.2
2019-Aug-19 04:09 276 12.2
2019-Aug-19 04:04 276 12.2
2019-Aug-19 04:00 276 12.2
2019-Aug-19 03:55 276 12.2
2019-Aug-19 03:49 276 12.2
2019-Aug-19 03:45 276 12.2
2019-Aug-19 03:40 276 12.2
2019-Aug-19 03:34 276 12.2
2019-Aug-19 03:30 276 12.2
2019-Aug-19 03:25 276 12.2
2019-Aug-19 03:19 276 12.2
2019-Aug-19 03:14 276 12.8
2019-Aug-19 03:10 276 12.8
2019-Aug-19 03:04 276 12.8
2019-Aug-19 02:59 276 12.8
2019-Aug-19 02:55 276 12.8
2019-Aug-19 02:50 276 12.8
2019-Aug-19 02:44 276 12.8
2019-Aug-19 02:40 276 13.3
2019-Aug-19 02:35 276 13.3
2019-Aug-19 02:29 276 13.3
2019-Aug-19 02:25 276 13.3
2019-Aug-19 02:19 276 13.3
2019-Aug-19 02:15 276 13.3
2019-Aug-19 02:10 276 13.3
2019-Aug-19 02:04 276 13.3
2019-Aug-19 01:59 276 13.3
2019-Aug-19 01:55 276 13.3
2019-Aug-19 01:49 276 13.3
2019-Aug-19 01:44 276 13.3
2019-Aug-19 01:39 276 13.3
2019-Aug-19 01:34 276 13.3
2019-Aug-19 01:30 276 0 gusting 5 13.3
2019-Aug-19 01:25 276 0 gusting 4 12.8
2019-Aug-19 01:19 276 12.8
2019-Aug-19 01:15 276 12.8
2019-Aug-19 01:09 276 12.8
2019-Aug-19 01:04 276 12.8
2019-Aug-19 01:00 276 13.3
2019-Aug-19 00:55 276 13.3
2019-Aug-19 00:49 276 13.3
2019-Aug-19 00:45 276 13.3
2019-Aug-19 00:39 276 13.3
2019-Aug-19 00:35 276 13.3
2019-Aug-19 00:30 276 13.3
2019-Aug-19 00:24 276 13.3
2019-Aug-19 00:20 276 13.3
2019-Aug-19 00:14 276 13.3
2019-Aug-19 00:09 276 13.3
2019-Aug-19 00:05 276 13.3
2019-Aug-19 00:00 276 13.3
2019-Aug-18 23:54 276 13.3
2019-Aug-18 23:50 276 13.3
2019-Aug-18 23:45 276 13.3
2019-Aug-18 23:39 276 13.3
2019-Aug-18 23:35 276 13.3
2019-Aug-18 23:29 276 13.3
2019-Aug-18 23:25 276 13.3
2019-Aug-18 23:20 276 13.3
2019-Aug-18 23:14 276 13.3
2019-Aug-18 23:10 276 13.3
2019-Aug-18 23:05 276 13.3
2019-Aug-18 22:59 276 13.3
2019-Aug-18 22:54 276 13.9
2019-Aug-18 22:50 276 13.9
2019-Aug-18 22:45 276 13.9
2019-Aug-18 22:39 276 13.9
2019-Aug-18 22:34 276 13.9
2019-Aug-18 22:29 276 13.9
2019-Aug-18 22:25 276 13.9
2019-Aug-18 22:19 276 13.9
2019-Aug-18 22:14 276 14.4
2019-Aug-18 22:10 276 14.4
2019-Aug-18 22:05 276 14.4
2019-Aug-18 21:59 276 14.4
2019-Aug-18 21:55 276 14.4
2019-Aug-18 21:50 276 14.4
2019-Aug-18 21:44 276 14.4
2019-Aug-18 21:40 276 14.4
2019-Aug-18 21:35 276 14.4
2019-Aug-18 21:29 276 15.0
2019-Aug-18 21:25 276 15.0
2019-Aug-18 21:20 276 15.0
2019-Aug-18 21:14 276 15.0
2019-Aug-18 21:10 276 15.0
2019-Aug-18 21:05 276 15.0
2019-Aug-18 21:00 276 15.0
2019-Aug-18 20:54 276 15.0
2019-Aug-18 20:50 276 0 gusting 4 15.6
2019-Aug-18 20:45 276 15.6
2019-Aug-18 20:39 276 15.6
2019-Aug-18 20:35 276 15.6
2019-Aug-18 20:29 276 15.6
2019-Aug-18 20:25 276 15.6
2019-Aug-18 20:20 276 15.6
2019-Aug-18 20:14 276 0 gusting 4 16.1
2019-Aug-18 20:10 276 16.1
2019-Aug-18 20:05 276 0 gusting 6 16.1
2019-Aug-18 19:59 276 16.1
2019-Aug-18 19:55 276 0 gusting 5 16.1
2019-Aug-18 19:50 271 16.1
2019-Aug-18 19:44 273 0 gusting 6 16.1
2019-Aug-18 19:40 250 16.7
2019-Aug-18 19:35 273 1 gusting 8 16.7
2019-Aug-18 19:29 360 0 gusting 6 16.7
2019-Aug-18 19:24 247 0 gusting 8 16.7
2019-Aug-18 19:20 258 0 gusting 10 16.7
2019-Aug-18 19:14 334 1 gusting 10 16.7
2019-Aug-18 19:10 284 1 gusting 9 17.2
2019-Aug-18 19:05 267 2 gusting 9 17.2
2019-Aug-18 18:59 247 4 gusting 12 17.2
2019-Aug-18 18:55 360 5 gusting 13 17.2
2019-Aug-18 18:50 236 4 gusting 15 17.2
2019-Aug-18 18:44 281 5 gusting 15 17.2
2019-Aug-18 18:40 289 5 gusting 15 17.8
2019-Aug-18 18:35 267 6 gusting 13 17.8
2019-Aug-18 18:29 269 6 gusting 16 17.8
2019-Aug-18 18:25 182 7 gusting 17 17.8
2019-Aug-18 18:20 218 3 gusting 17 17.8
2019-Aug-18 18:14 207 5 gusting 17 17.8
2019-Aug-18 18:10 196 5 gusting 13 18.3
2019-Aug-18 18:05 213 5 gusting 19 18.3
2019-Aug-18 17:59 226 6 gusting 18 18.3
2019-Aug-18 17:55 238 2 gusting 13 18.3
2019-Aug-18 17:49 179 5 gusting 16 18.3
2019-Aug-18 17:44 248 6 gusting 19 18.9
2019-Aug-18 17:40 231 8 gusting 19 18.9
2019-Aug-18 17:35 299 7 gusting 19 18.9
2019-Aug-18 17:29 238 6 gusting 17 18.9
2019-Aug-18 17:25 257 6 gusting 24 18.9
2019-Aug-18 17:20 304 6 gusting 24 19.4
2019-Aug-18 17:14 319 6 gusting 19 19.4
2019-Aug-18 17:10 277 7 gusting 19 19.4
2019-Aug-18 17:05 328 6 gusting 19 19.4
2019-Aug-18 16:59 181 4 gusting 20 19.4
2019-Aug-18 16:55 027 5 gusting 20 20.0
2019-Aug-18 16:50 318 5 gusting 19 20.0
2019-Aug-18 16:44 192 10 gusting 23 20.0
2019-Aug-18 16:40 203 3 gusting 23 20.0
2019-Aug-18 16:34 235 8 gusting 15 20.0
2019-Aug-18 16:30 167 8 gusting 17 20.0
2019-Aug-18 16:25 229 6 gusting 20 20.0
2019-Aug-18 16:19 204 7 gusting 20 20.0
2019-Aug-18 16:15 360 7 gusting 17 20.0
2019-Aug-18 16:10 146 7 gusting 20 20.0
2019-Aug-18 16:04 046 7 gusting 20 20.0
2019-Aug-18 16:00 194 5 gusting 20 20.0
2019-Aug-18 15:55 280 5 gusting 20 20.0
2019-Aug-18 15:49 194 8 gusting 20 20.0
2019-Aug-18 15:45 292 7 gusting 20 20.0
2019-Aug-18 15:39 005 9 gusting 23 20.6
2019-Aug-18 15:35 228 10 gusting 24 20.6
2019-Aug-18 15:29 262 10 gusting 24 20.6
2019-Aug-18 15:25 175 7 gusting 34 20.6
2019-Aug-18 15:20 242 11 gusting 34 20.6
2019-Aug-18 15:14 330 7 gusting 20 21.1
2019-Aug-18 15:10 306 3 gusting 20 21.1
2019-Aug-18 15:05 200 3 gusting 20 21.1
2019-Aug-18 14:59 201 9 gusting 20 21.1
2019-Aug-18 14:54 211 6 gusting 20 20.6
2019-Aug-18 14:50 176 7 gusting 20 20.6
2019-Aug-18 14:44 243 9 gusting 27 20.6
2019-Aug-18 14:40 217 13 gusting 27 20.6
2019-Aug-18 14:35 284 6 gusting 19 21.1
2019-Aug-18 14:29 202 8 gusting 23 20.6
2019-Aug-18 14:24 271 8 gusting 23 20.6
2019-Aug-18 14:20 208 8 gusting 22 21.1
2019-Aug-18 14:15 201 12 gusting 26 21.1
2019-Aug-18 14:09 227 11 gusting 26 21.1
2019-Aug-18 14:05 193 8 gusting 22 21.1
2019-Aug-18 14:00 254 6 gusting 22 21.1
2019-Aug-18 13:54 360 6 gusting 22 20.6
2019-Aug-18 13:50 144 9 gusting 25 20.6
2019-Aug-18 13:44 242 9 gusting 25 21.1
2019-Aug-18 13:39 242 9 gusting 22 21.1
2019-Aug-18 13:35 182 7 gusting 22 21.1
2019-Aug-18 13:29 300 4 gusting 24 21.1
2019-Aug-18 13:24 321 8 gusting 24 21.1
2019-Aug-18 13:20 360 11 gusting 19 21.1
2019-Aug-18 13:14 323 9 gusting 22 21.1
2019-Aug-18 13:10 216 12 gusting 26 20.6
2019-Aug-18 13:05 237 9 gusting 26 20.6